| time (UTC) | temp C | wind direction | speed KPH | gust KPH | rain 1hr cm | rain 24hr cm | rain mn cm | humidity % | barometer mb |
| 20260505140424 | 12 | 95 | 3.2 | 4.8 | 0.00 | 0.00 | 0.89 | 84 | 1009.5 |
| 20260505124924 | 12 | 103 | 4.8 | 9.7 | 0.00 | 0.00 | 0.89 | 89 | 1009.1 |
| 20260505124424 | 12 | 25 | 11.3 | 16.1 | 0.00 | 0.00 | 0.89 | 89 | 1009.1 |
| 20260505123925 | 12 | 52 | 8.0 | 11.3 | 0.00 | 0.00 | 0.89 | 90 | 1009.1 |
| 20260505123424 | 12 | 71 | 4.8 | 8.0 | 0.00 | 0.00 | 0.89 | 90 | 1008.8 |
| 20260505122924 | 12 | 355 | 4.8 | 9.7 | 0.00 | 0.00 | 0.89 | 91 | 1008.8 |
| 20260505122425 | 12 | 24 | 3.2 | 6.4 | 0.00 | 0.00 | 0.89 | 91 | 1008.8 |
| 20260505121924 | 12 | 103 | 0.0 | 8.0 | 0.00 | 0.00 | 0.89 | 91 | 1008.8 |
| 20260505121424 | 12 | 0 | 3.2 | 6.4 | 0.00 | 0.00 | 0.89 | 91 | 1009.1 |
| 20260505120925 | 12 | 168 | 3.2 | 6.4 | 0.00 | 0.00 | 0.89 | 92 | 1008.8 |
| 20260505120424 | 12 | 20 | 3.2 | 8.0 | 0.00 | 0.00 | 0.89 | 91 | 1008.5 |
| 20260505115924 | 12 | 64 | 4.8 | 8.0 | 0.00 | 0.00 | 0.89 | 91 | 1008.1 |
| 20260505115424 | 12 | 20 | 3.2 | 11.3 | 0.00 | 0.00 | 0.89 | 90 | 1008.1 |
| 20260505114924 | 13 | 47 | 4.8 | 11.3 | 0.00 | 0.00 | 0.89 | 90 | 1007.8 |
| 20260505114422 | 13 | 58 | 4.8 | 8.0 | 0.00 | 0.00 | 0.89 | 90 | 1008.1 |
| 20260505113925 | 13 | 73 | 3.2 | 9.7 | 0.00 | 0.00 | 0.89 | 90 | 1007.8 |
| 20260505113422 | 13 | 33 | 4.8 | 6.4 | 0.00 | 0.00 | 0.89 | 91 | 1008.1 |
| 20260505112925 | 13 | 337 | 1.6 | 9.7 | 0.00 | 0.00 | 0.89 | 91 | 1008.1 |
| 20260505112422 | 13 | 66 | 3.2 | 8.0 | 0.00 | 0.00 | 0.89 | 91 | 1008.1 |
| 20260505111924 | 14 | 38 | 4.8 | 8.0 | 0.00 | 0.00 | 0.89 | 92 | 1008.1 |
| 20260505111422 | 14 | 322 | 4.8 | 6.4 | 0.00 | 0.00 | 0.89 | 92 | 1008.1 |
| 20260505110925 | 14 | 193 | 4.8 | 6.4 | 0.00 | 0.00 | 0.89 | 92 | 1007.8 |
| 20260505110424 | 14 | 6 | 6.4 | 6.4 | 0.00 | 0.00 | 0.89 | 92 | 1007.8 |
| 20260505101922 | 16 | 295 | 1.6 | 6.4 | 0.05 | 0.00 | 0.89 | 91 | 1007.8 |
| 20260505101423 | 16 | 318 | 11.3 | 11.3 | 0.05 | 0.00 | 0.89 | 92 | 1007.8 |
| 20260505100925 | 16 | 31 | 3.2 | 8.0 | 0.05 | 0.00 | 0.89 | 91 | 1007.5 |
| 20260505100422 | 16 | 70 | 1.6 | 4.8 | 0.05 | 0.00 | 0.89 | 91 | 1007.1 |
| 20260505095922 | 16 | 39 | 0.0 | 4.8 | 0.05 | 0.00 | 0.89 | 91 | 1006.8 |
| 20260505095424 | 16 | 82 | 3.2 | 8.0 | 0.05 | 0.00 | 0.89 | 90 | 1007.5 |
| 20260505094922 | 16 | 63 | 0.0 | 11.3 | 0.05 | 0.00 | 0.89 | 88 | 1007.5 |
| 20260505094424 | 16 | 336 | 12.9 | 17.7 | 0.05 | 0.00 | 0.89 | 88 | 1007.8 |
| 20260505093922 | 16 | 323 | 11.3 | 16.1 | 0.03 | 0.00 | 0.89 | 89 | 1007.5 |
| 20260505093423 | 16 | 8 | 3.2 | 19.3 | 0.00 | 0.00 | 0.86 | 89 | 1008.1 |
| 20260505092922 | 16 | 346 | 20.9 | 25.7 | 0.00 | 0.00 | 0.86 | 87 | 1007.8 |
| 20260505092423 | 16 | 338 | 6.4 | 9.7 | 0.00 | 0.00 | 0.84 | 88 | 1007.1 |
| 20260505091922 | 16 | 285 | 4.8 | 4.8 | 0.00 | 0.00 | 0.84 | 88 | 1006.4 |
| 20260505091423 | 16 | 208 | 3.2 | 6.4 | 0.00 | 0.00 | 0.84 | 87 | 1006.1 |
| 20260505090922 | 16 | 189 | 4.8 | 4.8 | 0.00 | 0.00 | 0.84 | 87 | 1006.1 |
| 20260505090422 | 16 | 203 | 4.8 | 4.8 | 0.00 | 0.00 | 0.84 | 88 | 1006.1 |
| 20260505085922 | 16 | 150 | 0.0 | 6.4 | 0.03 | 0.00 | 0.84 | 89 | 1005.4 |
| 20260505085423 | 16 | 241 | 1.6 | 8.0 | 0.03 | 0.00 | 0.84 | 90 | 1005.8 |
| 20260505084922 | 16 | 239 | 0.0 | 4.8 | 0.10 | 0.00 | 0.84 | 91 | 1005.1 |
| 20260505084422 | 16 | 196 | 1.6 | 3.2 | 0.18 | 0.00 | 0.84 | 91 | 1005.1 |
| 20260505083925 | 16 | 295 | 8.0 | 8.0 | 0.25 | 0.00 | 0.84 | 91 | 1005.1 |
| 20260505083422 | 16 | 285 | 6.4 | 9.7 | 0.36 | 0.00 | 0.84 | 92 | 1004.7 |
| 20260505082924 | 16 | 159 | 8.0 | 17.7 | 0.43 | 0.00 | 0.84 | 92 | 1004.1 |
| 20260505082422 | 16 | 160 | 9.7 | 25.7 | 0.51 | 0.00 | 0.84 | 93 | 1004.1 |
| 20260505081922 | 16 | 180 | 16.1 | 25.7 | 0.58 | 0.00 | 0.84 | 93 | 1004.4 |
| 20260505081422 | 16 | 165 | 33.8 | 35.4 | 0.64 | 0.00 | 0.84 | 94 | 1004.7 |
| 20260505080923 | 16 | 182 | 12.9 | 20.9 | 0.66 | 0.00 | 0.84 | 93 | 1005.8 |
| 20260505080422 | 16 | 167 | 12.9 | 25.7 | 0.69 | 0.00 | 0.84 | 93 | 1006.1 |
| 20260505075923 | 16 | 170 | 12.9 | 20.9 | 0.71 | 0.00 | 0.84 | 93 | 1006.4 |
| 20260505075422 | 16 | 150 | 9.7 | 14.5 | 0.71 | 0.00 | 0.81 | 93 | 1007.1 |
| 20260505074922 | 16 | 268 | 6.4 | 9.7 | 0.66 | 0.00 | 0.81 | 92 | 1007.8 |
| 20260505074422 | 16 | 271 | 4.8 | 14.5 | 0.58 | 0.00 | 0.74 | 92 | 1007.8 |
| 20260505073923 | 16 | 264 | 12.9 | 20.9 | 0.51 | 0.00 | 0.64 | 91 | 1008.1 |
| 20260505073423 | 16 | 252 | 16.1 | 30.6 | 0.43 | 0.00 | 0.56 | 91 | 1007.8 |
| 20260505072922 | 16 | 232 | 12.9 | 22.5 | 0.33 | 0.00 | 0.46 | 89 | 1007.8 |
| 20260505072423 | 16 | 246 | 14.5 | 20.9 | 0.28 | 0.00 | 0.38 | 88 | 1007.5 |
| 20260505071922 | 17 | 197 | 6.4 | 24.1 | 0.23 | 0.00 | 0.28 | 87 | 1007.5 |
| 20260505071423 | 17 | 185 | 12.9 | 20.9 | 0.15 | 0.00 | 0.23 | 85 | 1007.5 |
| 20260505070922 | 17 | 227 | 8.0 | 14.5 | 0.13 | 0.00 | 0.18 | 83 | 1007.5 |
| 20260505070422 | 17 | 186 | 20.9 | 22.5 | 0.08 | 0.00 | 0.13 | 81 | 1007.5 |
| 20260505065923 | 18 | 199 | 14.5 | 25.7 | 0.05 | 0.00 | 0.10 | 79 | 1007.1 |
| 20260505065422 | 18 | 178 | 12.9 | 19.3 | 0.03 | 0.00 | 0.05 | 75 | 1006.8 |
| 20260505064923 | 18 | 236 | 9.7 | 22.5 | 0.03 | 0.00 | 0.03 | 73 | 1006.8 |
| 20260505064422 | 18 | 184 | 8.0 | 14.5 | 0.00 | 0.00 | 0.03 | 72 | 1006.4 |
| 20260505063922 | 19 | 202 | 12.9 | 14.5 | 0.00 | 0.00 | 0.00 | 70 | 1006.1 |
| 20260505063422 | 19 | 172 | 8.0 | 16.1 | 0.00 | 0.00 | 0.00 | 70 | 1006.1 |
| 20260505062923 | 19 | 123 | 3.2 | 8.0 | 0.00 | 0.00 | 0.00 | 69 | 1005.8 |
| 20260505062422 | 19 | 85 | 3.2 | 9.7 | 0.00 | 0.00 | 0.00 | 69 | 1006.1 |
| 20260505061922 | 19 | 167 | 11.3 | 12.9 | 0.00 | 0.00 | 0.00 | 68 | 1006.1 |
| 20260505061424 | 19 | 218 | 6.4 | 12.9 | 0.00 | 0.00 | 0.00 | 69 | 1006.1 |
| 20260505060922 | 19 | 179 | 6.4 | 16.1 | 0.00 | 0.00 | 0.00 | 69 | 1006.1 |
| 20260505060423 | 19 | 171 | 9.7 | 16.1 | 0.00 | 0.00 | 0.00 | 69 | 1006.4 |
| 20260505055923 | 18 | 165 | 6.4 | 9.7 | 0.00 | 0.00 | 0.00 | 69 | 1006.1 |
| 20260505055422 | 18 | 166 | 9.7 | 11.3 | 0.00 | 0.00 | 0.00 | 69 | 1006.1 |
| 20260505054922 | 18 | 182 | 9.7 | 11.3 | 0.00 | 0.00 | 0.00 | 69 | 1006.1 |
| 20260505054422 | 19 | 161 | 6.4 | 8.0 | 0.00 | 0.00 | 0.00 | 69 | 1006.1 |
| 20260505053922 | 19 | 156 | 8.0 | 14.5 | 0.00 | 0.00 | 0.00 | 69 | 1006.1 |
| 20260505053423 | 19 | 173 | 8.0 | 11.3 | 0.00 | 0.00 | 0.00 | 69 | 1006.4 |
| 20260505052922 | 18 | 150 | 12.9 | 16.1 | 0.00 | 0.00 | 0.00 | 69 | 1006.4 |
| 20260505052422 | 18 | 143 | 3.2 | 11.3 | 0.00 | 0.00 | 0.00 | 69 | 1006.8 |
| 20260505051923 | 18 | 149 | 6.4 | 14.5 | 0.00 | 0.00 | 0.00 | 70 | 1006.4 |
| 20260505051422 | 18 | 169 | 6.4 | 11.3 | 0.00 | 0.00 | 0.00 | 69 | 1006.1 |
| 20260505050923 | 18 | 177 | 9.7 | 11.3 | 0.00 | 0.00 | 0.00 | 69 | 1006.1 |
| 20260505050423 | 19 | 167 | 8.0 | 12.9 | 0.00 | 0.00 | 0.00 | 69 | 1006.1 |
| 20260505041422 | 19 | 164 | 6.4 | 11.3 | 0.00 | 0.00 | 0.00 | 68 | 1006.8 |
| 20260505040923 | 19 | 159 | 4.8 | 9.7 | 0.00 | 0.00 | 0.00 | 67 | 1006.8 |
| 20260505040422 | 19 | 147 | 3.2 | 11.3 | 0.00 | 0.00 | 0.00 | 67 | 1006.8 |
| 20260505035923 | 19 | 174 | 4.8 | 11.3 | 0.00 | 0.00 | 0.00 | 67 | 1006.8 |
| 20260505035422 | 19 | 176 | 6.4 | 8.0 | 0.00 | 0.00 | 0.00 | 67 | 1006.8 |
| 20260505034923 | 19 | 167 | 8.0 | 11.3 | 0.00 | 0.00 | 0.00 | 67 | 1006.8 |
| 20260505034422 | 19 | 182 | 6.4 | 9.7 | 0.00 | 0.00 | 0.00 | 68 | 1007.1 |
| 20260505033922 | 19 | 181 | 6.4 | 8.0 | 0.00 | 0.00 | 0.00 | 68 | 1007.1 |
| 20260505033422 | 19 | 166 | 8.0 | 9.7 | 0.00 | 0.00 | 0.00 | 68 | 1007.1 |
| 20260505032922 | 20 | 182 | 3.2 | 6.4 | 0.00 | 0.00 | 0.00 | 68 | 1007.1 |
| 20260505032422 | 20 | 183 | 3.2 | 6.4 | 0.00 | 0.00 | 0.00 | 67 | 1007.5 |
| 20260505031923 | 20 | 185 | 4.8 | 4.8 | 0.00 | 0.00 | 0.00 | 67 | 1007.1 |
| 20260505031422 | 20 | 166 | 4.8 | 4.8 | 0.00 | 0.00 | 0.00 | 66 | 1007.1 |
| 20260505030922 | 20 | 164 | 3.2 | 4.8 | 0.00 | 0.00 | 0.00 | 65 | 1007.1 |
| 20260505030422 | 20 | 177 | 4.8 | 4.8 | 0.00 | 0.00 | 0.00 | 64 | 1007.5 |
| 20260505025921 | 20 | 176 | 3.2 | 8.0 | 0.00 | 0.00 | 0.00 | 64 | 1007.1 |
| 20260505025422 | 20 | 187 | 0.0 | 6.4 | 0.00 | 0.00 | 0.00 | 63 | 1007.1 |
| 20260505024922 | 21 | 182 | 4.8 | 8.0 | 0.00 | 0.00 | 0.00 | 63 | 1007.1 |
| 20260505024423 | 21 | 161 | 6.4 | 8.0 | 0.00 | 0.00 | 0.00 | 63 | 1006.8 |
| 20260505023922 | 21 | 157 | 0.0 | 6.4 | 0.00 | 0.00 | 0.00 | 63 | 1006.8 |
| 20260505023423 | 21 | 208 | 6.4 | 9.7 | 0.00 | 0.00 | 0.00 | 62 | 1006.8 |
| 20260505022922 | 21 | 211 | 4.8 | 11.3 | 0.00 | 0.00 | 0.00 | 62 | 1006.8 |
| 20260505022422 | 21 | 247 | 1.6 | 11.3 | 0.00 | 0.00 | 0.00 | 62 | 1006.4 |
| 20260505021922 | 21 | 223 | 3.2 | 9.7 | 0.00 | 0.00 | 0.00 | 62 | 1006.8 |
| 20260505021422 | 21 | 197 | 8.0 | 9.7 | 0.00 | 0.00 | 0.00 | 61 | 1006.4 |
| 20260505020922 | 21 | 203 | 4.8 | 11.3 | 0.00 | 0.00 | 0.00 | 61 | 1006.4 |
| 20260505020422 | 21 | 232 | 9.7 | 16.1 | 0.00 | 0.00 | 0.00 | 61 | 1006.4 |
| 20260505015922 | 21 | 176 | 6.4 | 12.9 | 0.00 | 0.00 | 0.00 | 61 | 1006.4 |
| 20260505015423 | 21 | 196 | 3.2 | 9.7 | 0.00 | 0.00 | 0.00 | 61 | 1006.1 |
| 20260505014922 | 21 | 212 | 8.0 | 14.5 | 0.00 | 0.00 | 0.00 | 60 | 1006.1 |
| 20260505014423 | 22 | 235 | 8.0 | 11.3 | 0.00 | 0.00 | 0.00 | 60 | 1006.1 |
| 20260505013922 | 22 | 210 | 6.4 | 9.7 | 0.00 | 0.00 | 0.00 | 60 | 1006.4 |
| 20260505013422 | 22 | 190 | 3.2 | 9.7 | 0.00 | 0.00 | 0.00 | 59 | 1005.8 |
| 20260505012923 | 22 | 210 | 4.8 | 8.0 | 0.00 | 0.00 | 0.00 | 59 | 1006.1 |
| 20260505012423 | 22 | 209 | 0.0 | 9.7 | 0.00 | 0.00 | 0.00 | 59 | 1005.8 |
| 20260505011922 | 22 | 205 | 8.0 | 12.9 | 0.00 | 0.00 | 0.00 | 58 | 1005.8 |
| 20260505011422 | 22 | 213 | 12.9 | 17.7 | 0.00 | 0.00 | 0.00 | 58 | 1005.8 |
| 20260505010922 | 22 | 183 | 8.0 | 14.5 | 0.00 | 0.00 | 0.00 | 58 | 1005.4 |
| 20260505010422 | 22 | 181 | 4.8 | 9.7 | 0.00 | 0.00 | 0.00 | 58 | 1005.8 |
| 20260505005922 | 22 | 166 | 4.8 | 8.0 | 0.00 | 0.00 | 0.00 | 58 | 1005.8 |
| 20260505005422 | 22 | 173 | 1.6 | 8.0 | 0.00 | 0.00 | 0.00 | 58 | 1005.4 |
| 20260505004923 | 22 | 181 | 4.8 | 6.4 | 0.00 | 0.00 | 0.00 | 58 | 1005.4 |
| 20260505004422 | 22 | 212 | 6.4 | 9.7 | 0.00 | 0.00 | 0.00 | 57 | 1005.4 |
| 20260505003922 | 22 | 203 | 4.8 | 8.0 | 0.00 | 0.00 | 0.00 | 57 | 1005.1 |
| 20260505003423 | 23 | 189 | 6.4 | 6.4 | 0.00 | 0.00 | 0.00 | 56 | 1005.1 |
| 20260505002922 | 23 | 160 | 4.8 | 9.7 | 0.00 | 0.00 | 0.00 | 56 | 1005.1 |
| 20260505002422 | 23 | 197 | 1.6 | 6.4 | 0.00 | 0.00 | 0.00 | 56 | 1005.1 |
| 20260505001922 | 23 | 217 | 3.2 | 9.7 | 0.00 | 0.00 | 0.00 | 55 | 1005.1 |
| 20260505001422 | 23 | 180 | 4.8 | 9.7 | 0.00 | 0.00 | 0.00 | 55 | 1005.1 |
| 20260505000923 | 23 | 226 | 6.4 | 14.5 | 0.00 | 0.00 | 0.00 | 55 | 1005.1 |
| 20260505000422 | 23 | 215 | 8.0 | 11.3 | 0.00 | 0.00 | 0.00 | 54 | 1004.7 |
| 20260504235922 | 23 | 149 | 4.8 | 8.0 | 0.00 | 0.00 | 0.00 | 54 | 1005.1 |
| 20260504235422 | 23 | 149 | 3.2 | 8.0 | 0.00 | 0.00 | 0.00 | 52 | 1004.7 |
| 20260504234922 | 23 | 170 | 4.8 | 9.7 | 0.00 | 0.00 | 0.00 | 52 | 1005.1 |
| 20260504234422 | 24 | 221 | 4.8 | 14.5 | 0.00 | 0.00 | 0.00 | 51 | 1005.1 |
| 20260504233922 | 24 | 175 | 6.4 | 11.3 | 0.00 | 0.00 | 0.00 | 50 | 1004.7 |
| 20260504233003 | 25 | 213 | 9.7 | 12.9 | 0.00 | 0.00 | 0.00 | 49 | 1004.7 |
| 20260504232422 | 25 | 222 | 12.9 | 19.3 | 0.00 | 0.00 | 0.00 | 48 | 1004.7 |
| 20260504231923 | 25 | 183 | 9.7 | 14.5 | 0.00 | 0.00 | 0.00 | 49 | 1005.1 |
| 20260504231423 | 25 | 197 | 12.9 | 17.7 | 0.00 | 0.00 | 0.00 | 48 | 1004.4 |
| 20260504230923 | 25 | 204 | 11.3 | 14.5 | 0.00 | 0.00 | 0.00 | 48 | 1004.7 |
| 20260504230422 | 25 | 209 | 3.2 | 12.9 | 0.00 | 0.00 | 0.00 | 48 | 1004.7 |
| 20260504225923 | 25 | 180 | 11.3 | 20.9 | 0.00 | 0.00 | 0.00 | 46 | 1004.4 |
| 20260504225422 | 25 | 154 | 8.0 | 11.3 | 0.00 | 0.00 | 0.00 | 47 | 1004.4 |
| 20260504224922 | 25 | 195 | 14.5 | 19.3 | 0.00 | 0.00 | 0.00 | 47 | 1004.4 |
| 20260504224422 | 25 | 209 | 14.5 | 16.1 | 0.00 | 0.00 | 0.00 | 48 | 1004.7 |
| 20260504223922 | 26 | 181 | 8.0 | 22.5 | 0.00 | 0.00 | 0.00 | 47 | 1004.4 |
| 20260504223422 | 25 | 202 | 14.5 | 22.5 | 0.00 | 0.00 | 0.00 | 46 | 1004.4 |
| 20260504222923 | 25 | 205 | 16.1 | 17.7 | 0.00 | 0.00 | 0.00 | 46 | 1004.4 |
| 20260504222422 | 25 | 213 | 8.0 | 17.7 | 0.00 | 0.00 | 0.00 | 45 | 1004.7 |
| 20260504221923 | 26 | 213 | 8.0 | 22.5 | 0.00 | 0.00 | 0.00 | 46 | 1004.4 |
| 20260504221422 | 26 | 247 | 8.0 | 20.9 | 0.00 | 0.00 | 0.00 | 47 | 1004.4 |
| 20260504220922 | 25 | 214 | 17.7 | 25.7 | 0.00 | 0.00 | 0.00 | 45 | 1004.7 |
| 20260504220423 | 25 | 189 | 8.0 | 32.2 | 0.00 | 0.00 | 0.00 | 46 | 1004.7 |
| 20260504215923 | 25 | 232 | 8.0 | 22.5 | 0.00 | 0.00 | 0.00 | 46 | 1004.7 |
| 20260504215425 | 25 | 266 | 11.3 | 17.7 | 0.00 | 0.00 | 0.00 | 46 | 1005.1 |
| 20260504214923 | 25 | 171 | 16.1 | 24.1 | 0.00 | 0.00 | 0.00 | 47 | 1004.7 |
| 20260504214422 | 25 | 204 | 4.8 | 20.9 | 0.00 | 0.00 | 0.00 | 46 | 1004.4 |
| 20260504213923 | 26 | 233 | 9.7 | 25.7 | 0.00 | 0.00 | 0.00 | 47 | 1004.7 |
| 20260504213422 | 26 | 204 | 12.9 | 14.5 | 0.00 | 0.00 | 0.00 | 49 | 1004.7 |
| 20260504212923 | 25 | 176 | 9.7 | 14.5 | 0.00 | 0.00 | 0.00 | 49 | 1004.7 |
| 20260504212422 | 25 | 181 | 11.3 | 22.5 | 0.00 | 0.00 | 0.00 | 49 | 1004.4 |
| 20260504211922 | 25 | 163 | 12.9 | 22.5 | 0.00 | 0.00 | 0.00 | 49 | 1004.7 |
| 20260504211423 | 26 | 149 | 11.3 | 27.4 | 0.00 | 0.00 | 0.00 | 49 | 1004.7 |
| 20260504210922 | 26 | 201 | 9.7 | 12.9 | 0.00 | 0.00 | 0.00 | 50 | 1004.7 |
| 20260504210422 | 25 | 242 | 11.3 | 12.9 | 0.00 | 0.00 | 0.00 | 51 | 1005.1 |
| 20260504205922 | 25 | 217 | 11.3 | 19.3 | 0.00 | 0.00 | 0.00 | 49 | 1005.1 |
| 20260504205422 | 25 | 197 | 14.5 | 20.9 | 0.00 | 0.00 | 0.00 | 51 | 1005.1 |
| 20260504204922 | 25 | 258 | 9.7 | 25.7 | 0.00 | 0.00 | 0.00 | 48 | 1005.4 |
| 20260504204422 | 25 | 237 | 16.1 | 22.5 | 0.00 | 0.00 | 0.00 | 50 | 1005.1 |
| 20260504203922 | 25 | 161 | 9.7 | 17.7 | 0.00 | 0.00 | 0.00 | 50 | 1005.1 |
| 20260504203422 | 25 | 228 | 20.9 | 24.1 | 0.00 | 0.00 | 0.00 | 48 | 1005.1 |
| 20260504202924 | 25 | 171 | 12.9 | 20.9 | 0.00 | 0.00 | 0.00 | 48 | 1005.4 |
| 20260504202422 | 25 | 233 | 16.1 | 24.1 | 0.00 | 0.00 | 0.00 | 47 | 1005.4 |
| 20260504201922 | 26 | 158 | 11.3 | 25.7 | 0.00 | 0.00 | 0.00 | 48 | 1005.1 |
| 20260504201423 | 26 | 196 | 12.9 | 25.7 | 0.00 | 0.00 | 0.00 | 48 | 1005.8 |
| 20260504200923 | 25 | 202 | 14.5 | 20.9 | 0.00 | 0.00 | 0.00 | 48 | 1005.8 |
| 20260504200422 | 25 | 172 | 4.8 | 19.3 | 0.00 | 0.00 | 0.00 | 48 | 1006.1 |
| 20260504195922 | 25 | 138 | 8.0 | 22.5 | 0.00 | 0.00 | 0.00 | 49 | 1005.8 |
| 20260504195423 | 26 | 152 | 19.3 | 27.4 | 0.00 | 0.00 | 0.00 | 47 | 1005.8 |
| 20260504194923 | 26 | 202 | 8.0 | 24.1 | 0.00 | 0.00 | 0.00 | 48 | 1005.8 |
| 20260504194423 | 25 | 177 | 9.7 | 17.7 | 0.00 | 0.00 | 0.00 | 48 | 1005.8 |
| 20260504193922 | 25 | 222 | 12.9 | 17.7 | 0.00 | 0.00 | 0.00 | 49 | 1005.8 |
| 20260504193422 | 25 | 196 | 16.1 | 19.3 | 0.00 | 0.00 | 0.00 | 48 | 1006.1 |
| 20260504192923 | 25 | 157 | 6.4 | 20.9 | 0.00 | 0.00 | 0.00 | 48 | 1006.4 |
| 20260504192424 | 25 | 177 | 19.3 | 29.0 | 0.00 | 0.00 | 0.00 | 48 | 1006.1 |
| 20260504191923 | 25 | 251 | 11.3 | 24.1 | 0.00 | 0.00 | 0.00 | 47 | 1005.8 |
| 20260504191423 | 25 | 198 | 16.1 | 35.4 | 0.00 | 0.00 | 0.00 | 48 | 1006.1 |
| 20260504190922 | 25 | 218 | 11.3 | 20.9 | 0.00 | 0.00 | 0.00 | 49 | 1006.1 |
| 20260504190422 | 25 | 188 | 19.3 | 19.3 | 0.00 | 0.00 | 0.00 | 48 | 1006.1 |
| 20260504185923 | 25 | 196 | 17.7 | 20.9 | 0.00 | 0.00 | 0.00 | 48 | 1006.1 |
| 20260504185422 | 25 | 209 | 14.5 | 24.1 | 0.00 | 0.00 | 0.00 | 47 | 1006.1 |
| 20260504184922 | 25 | 159 | 8.0 | 22.5 | 0.00 | 0.00 | 0.00 | 48 | 1006.8 |
| 20260504184422 | 25 | 210 | 9.7 | 27.4 | 0.00 | 0.00 | 0.00 | 47 | 1006.4 |
| 20260504183925 | 25 | 148 | 11.3 | 24.1 | 0.00 | 0.00 | 0.00 | 48 | 1006.4 |
| 20260504183422 | 25 | 160 | 16.1 | 22.5 | 0.00 | 0.00 | 0.00 | 48 | 1006.4 |
| 20260504182922 | 25 | 184 | 9.7 | 32.2 | 0.00 | 0.00 | 0.00 | 49 | 1006.1 |
| 20260504182423 | 25 | 244 | 11.3 | 27.4 | 0.00 | 0.00 | 0.00 | 48 | 1006.4 |
| 20260504181922 | 25 | 163 | 16.1 | 22.5 | 0.00 | 0.00 | 0.00 | 50 | 1006.4 |
| 20260504181422 | 25 | 179 | 8.0 | 24.1 | 0.00 | 0.00 | 0.00 | 49 | 1006.8 |
| 20260504180923 | 25 | 192 | 8.0 | 14.5 | 0.00 | 0.00 | 0.00 | 50 | 1006.4 |
| 20260504180423 | 24 | 265 | 14.5 | 20.9 | 0.00 | 0.00 | 0.00 | 49 | 1006.4 |
| 20260504175923 | 24 | 129 | 8.0 | 19.3 | 0.00 | 0.00 | 0.00 | 48 | 1006.4 |
| 20260504175422 | 24 | 217 | 8.0 | 25.7 | 0.00 | 0.00 | 0.00 | 48 | 1006.8 |
| 20260504174923 | 24 | 228 | 17.7 | 22.5 | 0.00 | 0.00 | 0.00 | 48 | 1006.8 |
| 20260504174422 | 24 | 165 | 8.0 | 25.7 | 0.00 | 0.00 | 0.00 | 49 | 1006.8 |
| 20260504173922 | 24 | 223 | 14.5 | 20.9 | 0.00 | 0.00 | 0.00 | 49 | 1006.8 |
| 20260504173422 | 24 | 196 | 14.5 | 29.0 | 0.00 | 0.00 | 0.00 | 49 | 1006.4 |
| 20260504172923 | 23 | 204 | 8.0 | 24.1 | 0.00 | 0.00 | 0.00 | 49 | 1006.8 |
| 20260504172423 | 23 | 255 | 24.1 | 25.7 | 0.00 | 0.00 | 0.00 | 48 | 1006.8 |
| 20260504171924 | 23 | 184 | 19.3 | 32.2 | 0.00 | 0.00 | 0.00 | 49 | 1006.8 |
| 20260504171425 | 23 | 261 | 14.5 | 25.7 | 0.00 | 0.00 | 0.00 | 48 | 1006.8 |
| 20260504170924 | 23 | 195 | 8.0 | 22.5 | 0.00 | 0.00 | 0.00 | 48 | 1006.8 |
| 20260504170422 | 23 | 176 | 14.5 | 20.9 | 0.00 | 0.00 | 0.00 | 50 | 1006.8 |
| 20260504160426 | 22 | 210 | 11.3 | 20.9 | 0.00 | 0.00 | 0.00 | 52 | 1007.5 |
| 20260504150922 | 21 | 165 | 8.0 | 32.2 | 0.00 | 0.00 | 0.00 | 51 | 1008.1 |
| 20260504150423 | 21 | 230 | 8.0 | 29.0 | 0.00 | 0.00 | 0.00 | 52 | 1008.1 |